SL-14 DEB, 45334

Orbit data source: Space-Track

SL-14 DEB, 45334 is space debris in LEO originally from a launch on Thu, 15 Aug 1991 UTC launched from the Plesetsk Missile And Space Complex (PKMTR). Debris objects in space refer to the collection of defunct objects orbiting the Earth. Examples of debris include non-operational satellites, rocket bodies, and fragments generated from explosions, collisions, or faulty payload assembly.

Loading next visibility...
Identifier
45334, 1991-056BY
Orbit
LEO
Country
Flag of CISCIS
Related business
Manufacturer
Unknown
Mission
Spacecraft
Bus & Motor
Unknown
Mass
Unknown
Launch date (UTC)
1991-08-15 (34 years ago)
Launch vehicle
Unknown
Launch site
Plesetsk Missile And Space Complex (PKMTR)
Object type
Payload
Rocket body
Debris
Shape & HBR
Unknown shape, 0.1 m
Radar Cross Section
Small (<0.1 m²)

Expand to show TLE details & history
Last TLE update: 16 hours ago

TLE from 16 hours ago
0 SL-14 DEB
1 45334U 91056BY  25286.96772965  .00000270  00000-0  57727-3 0  9994
2 45334  82.5525 290.0997 0044207 245.3669 114.2851 13.26610825272788
Epoch: 2025-10-13T23:13Z
TLE epoch observation values (Epoch: 2025-10-13T23:13:31.841Z)
Latitude
-0.00003°
Longitude
-81.04588°
Altitude
1,176.224 km
Speed
7.259 km/s
True Right ascension
19h 20m 23s
True Declination
0° 00' 00"
Sunlit
Object was in daylight at epoch
Visualization orbit readout
Latitude
Unknown
Longitude
Unknown
Altitude
Unknown
Speed
Unknown
Apparent Right ascension
Unknown
Apparent Declination
Unknown
Sunlit
N/A
Visualization observer readout
Local Sidereal Time
09:57:14
Azimuth
Unknown
Elevation
Unknown
Doppler factor
Unknown
Orbital elements
Apogee altitude
1,190.115 km
Perigee altitude
1,123.495 km
Semi-major axis
7,534.942 km
Eccentricity
0.00442
Inclination
82.5525°
RAAN
290.0997°
Arg. of periapsis
245.3669°
True anomaly
114.7458°
Mean anomaly
114.2851°
Eccentric anomaly
114.51555°
Mean motion
3.31836 °/min
Orbital period
108.49 mins
BSTAR
0.00057727
Loading maneuver chart data...
Computing Atmospheric mass density...
Loading historical data...
Loading historical data...
Loading historical data...
Loading historical data...
Loading historical data...
Loading historical data...
Loading historical data...

Documentation

Showing up to 5 results
|